Dewpoint
56 56 56 56 56 56 56 56 56 57 57 58 58 58 58 58 58 59 59 59 59 59 59 58 59 59 58 58 58 57 57 52 46 46 48 47 60 64 65 62 64 66 59 44 52 53 52 51 51 56 57 55 55 53 54 55 55 57 61 59 56 54 51 52 56 55 54 58 57 62 64 60 56 60 59 60 60 60 60 58 60 61 62 58 59 61 63 63
56 56 56 56 56 56 56 56 57 57 57 57 58 58 58 58 58 59 58 59 58 58 58 59 59 59 59 58 58 57 55 51 48 44 43 59 66 63 62 58 62 61 58 42 49 53 48 49 53 56 56 53 54 53 54 53 55 53 55 59 54 55 54 55 57 57 56 58 56 57 61 58 57 59 59 65 59 58 62 60 59 60 59 59 61 61 62 62
56 56 56 56 56 55 56 56 56 57 57 57 57 58 58 58 58 58 58 58 58 58 58 58 59 59 59 58 58 58 54 48 48 46 47 68 67 67 66 62 61 62 46 41 48 52 46 49 53 55 55 53 52 51 52 50 54 53 50 55 57 56 56 55 55 61 59 61 58 58 60 58 52 54 64 62 61 61 61 57 59 59 57 57 59 61 62 62
56 56 55 55 55 56 56 56 56 56 57 57 57 58 58 58 57 57 58 58 58 58 58 58 59 59 59 58 58 56 51 49 45 49 50 68 64 66 64 65 62 58 44 43 45 51 46 48 52 53 53 50 49 50 49 49 51 52 49 47 56 56 54 55 62 62 64 63 60 63 55 54 51 57 58 64 62 62 60 58 59 58 56 56 56 59 60 61
55 55 55 56 55 56 56 56 57 56 57 57 57 57 57 57 57 57 57 57 58 58 58 59 59 59 59 58 57 52 48 44 46 48 52 66 68 68 66 67 63 46 37 40 44 49 46 46 50 51 51 49 46 47 48 48 51 50 47 48 55 57 51 55 56 56 61 61 63 66 51 55 55 56 58 57 58 58 61 60 58 58 56 56 56 58 57 61
55 55 55 55 56 55 56 56 56 56 56 57 57 57 57 57 57 57 57 57 58 58 58 59 59 59 59 58 56 52 47 27 36 44 61 71 70 70 69 66 64 51 35 36 42 47 47 46 48 48 49 48 47 42 46 46 49 48 47 46 49 54 52 54 55 54 56 54 59 55 55 56 53 57 55 53 57 58 60 63 57 58 56 57 56 57 57 57
55 55 55 55 55 55 55 56 56 56 57 57 57 57 57 57 56 56 56 57 57 58 58 59 59 60 59 58 52 48 45 42 38 50 70 69 71 71 68 65 65 52 40 34 40 45 47 45 46 46 48 46 45 44 43 45 46 45 46 48 48 54 50 54 54 57 56 53 53 52 53 63 58 58 56 55 56 58 62 59 58 57 57 57 57 55 55 57
54 54 54 55 55 55 55 56 56 56 57 57 57 57 56 56 56 56 56 57 57 58 59 59 59 59 58 52 48 47 47 41 32 45 70 70 66 69 70 61 55 44 40 37 41 45 46 44 44 44 46 43 41 41 42 41 42 42 42 44 45 56 55 53 52 56 54 51 52 51 49 59 52 60 55 54 56 58 59 57 58 57 56 56 57 57 55 57
54 54 54 55 55 55 55 55 56 56 56 56 56 56 56 56 56 56 57 57 58 58 59 60 60 59 58 49 37 35 32 28 28 41 63 63 58 62 63 55 48 37 38 39 41 44 45 42 43 42 42 41 38 37 37 37 37 40 40 41 43 44 46 49 54 53 53 52 51 50 49 55 52 55 56 56 59 57 59 56 57 58 56 56 57 57 56 57
54 54 54 54 55 55 55 55 56 56 56 56 56 56 56 56 56 56 57 58 59 59 60 60 59 58 53 45 43 38 27 28 27 25 30 43 44 59 57 44 39 35 36 38 40 42 43 42 40 42 41 40 37 33 33 33 33 36 38 39 39 40 43 45 45 49 52 51 52 49 49 52 51 54 53 54 55 57 56 56 57 57 57 56 56 56 57 56
54 54 54 54 54 54 55 55 56 56 56 56 55 55 56 56 56 56 57 58 60 60 60 59 58 56 44 43 41 34 30 30 26 24 33 40 40 46 46 37 33 34 35 35 38 42 43 41 39 39 41 37 35 33 32 30 29 29 32 36 40 40 39 39 43 47 50 50 50 50 49 50 51 50 54 57 57 58 57 56 56 57 57 57 56 57 57 57
54 54 54 54 54 54 55 55 55 55 55 55 55 55 55 55 55 56 57 59 60 60 59 59 59 52 43 42 41 33 26 25 27 25 28 34 36 35 37 36 33 35 34 36 42 47 46 40 38 38 37 37 29 30 28 29 28 27 27 29 34 37 36 40 40 41 48 48 50 50 48 47 48 47 57 54 55 57 55 56 56 57 57 57 57 57 58 58
53 54 53 54 54 54 55 55 55 55 55 55 55 54 54 55 55 56 58 59 61 59 59 59 59 50 47 45 44 29 21 24 27 25 24 32 33 35 37 41 34 35 38 46 48 48 45 41 39 38 37 35 30 23 21 25 26 26 25 29 34 35 34 34 38 40 41 46 49 50 45 45 46 47 50 53 53 58 56 57 56 57 57 57 57 57 58 57
53 53 53 54 54 54 54 55 55 54 54 55 54 54 54 54 55 57 58 60 60 59 58 60 55 49 48 45 25 23 22 25 26 21 25 30 29 35 37 42 42 39 44 48 50 49 44 43 41 39 38 34 31 28 20 18 22 24 26 28 30 30 30 32 35 37 37 41 46 49 44 45 46 46 54 54 52 58 55 55 56 57 57 57 57 57 57 57
54 53 54 53 54 54 54 54 54 54 54 54 53 53 53 53 55 57 59 60 61 59 60 60 52 49 49 48 30 26 50 35 32 28 19 16 26 29 34 38 44 44 44 47 49 49 45 41 39 38 36 35 33 31 28 23 22 24 22 23 25 27 29 30 32 34 34 36 42 47 44 45 46 46 48 55 53 52 55 55 60 57 57 57 57 57 57 57
53 53 53 54 54 54 54 53 53 53 54 53 52 52 54 55 56 58 59 60 62 61 57 53 53 49 44 38 29 45 31 30 13 17 17 15 23 31 32 34 40 46 46 47 50 49 47 43 38 37 36 35 32 30 28 26 23 21 21 20 22 26 26 26 26 29 32 33 40 44 43 44 45 45 52 51 54 52 56 55 58 56 56 57 57 58 57 57
53 53 53 53 53 53 54 53 53 53 52 52 52 53 54 56 56 57 59 61 57 57 51 50 49 51 41 26 21 24 16 13 16 15 17 17 17 24 34 35 39 43 46 48 49 49 47 44 41 38 36 34 32 29 28 26 22 18 19 18 18 20 23 23 23 24 29 32 37 42 42 44 47 46 49 53 53 52 52 55 55 57 57 57 57 57 57 57
53 53 53 53 53 54 53 53 53 53 52 51 52 51 50 54 57 59 57 59 50 49 51 52 49 43 36 34 25 18 15 14 14 14 13 20 20 20 34 37 39 40 45 46 46 45 44 40 39 35 35 34 33 30 26 22 18 16 15 16 16 19 21 21 20 21 26 32 32 41 42 42 45 45 49 49 52 53 54 56 57 55 57 59 57 57 57 57
52 52 53 53 53 53 53 53 52 52 52 52 52 53 55 56 49 47 46 46 50 49 49 46 41 38 7 13 14 15 14 14 15 18 15 17 21 18 31 38 39 42 42 39 38 39 40 39 38 36 33 32 30 30 27 21 17 13 11 11 15 16 19 20 21 22 25 31 32 36 41 41 44 44 48 52 53 50 57 54 55 59 57 59 58 57 57 58
53 53 53 53 53 53 53 53 52 51 51 50 43 41 44 43 41 42 40 42 42 35 28 8 14 10 8 9 13 13 12 13 15 18 17 17 20 16 21 34 39 42 39 31 33 34 38 36 35 34 30 28 27 26 27 24 17 12 8 6 6 11 15 20 21 21 29 32 34 35 39 42 46 44 45 50 50 53 51 56 58 58 58 55 56 57 58 59
53 53 53 53 53 53 53 52 51 51 51 49 43 39 24 24 20 21 24 22 19 19 11 6 11 13 9 11 11 12 7 14 15 17 19 21 19 15 16 31 36 37 37 33 28 34 33 34 33 32 30 25 23 24 23 23 22 16 10 6 2 4 10 17 20 21 22 29 32 35 36 40 48 44 45 49 49 50 51 56 58 62 62 55 56 57 58 59
52 53 53 53 52 52 52 51 51 51 51 50 42 33 26 26 26 27 26 21 21 21 13 9 11 10 12 12 11 11 11 8 11 21 22 20 17 15 23 31 34 36 35 33 28 29 30 28 30 30 28 25 21 21 21 20 20 19 13 9 6 11 11 12 17 20 20 22 28 30 33 36 41 46 46 48 50 50 51 53 55 60 60 61 56 57 59 58
53 53 53 53 52 52 51 51 50 51 50 42 30 28 27 28 29 31 26 23 21 18 15 16 9 10 11 10 11 14 11 8 10 18 20 17 21 19 31 31 30 32 32 30 26 26 28 28 27 28 27 24 21 18 18 19 17 16 14 11 7 11 12 10 12 17 19 24 27 32 31 34 37 44 47 47 47 51 53 57 56 58 61 60 57 57 62 57
53 53 53 53 52 51 51 50 50 49 44 40 28 27 28 28 28 29 27 25 23 23 20 14 13 13 11 7 11 7 8 9 7 18 20 17 22 25 27 33 29 27 26 27 26 24 25 28 28 26 26 24 21 19 16 16 16 15 13 11 7 7 11 11 10 14 18 20 28 29 29 32 36 36 44 52 52 51 47 48 57 59 60 59 64 63 62 58
53 53 53 53 52 51 50 50 46 36 30 29 29 29 28 31 35 33 26 27 23 20 18 14 13 12 11 10 9 6 10 9 5 8 16 14 20 23 26 29 31 29 25 25 25 24 23 25 27 26 25 24 22 19 16 15 16 15 12 10 9 8 9 10 12 12 15 17 19 23 28 29 33 33 36 41 43 43 46 49 59 58 59 61 60 60 58 58
53 53 53 52 52 51 50 49 38 34 33 32 30 29 29 29 35 32 28 25 23 17 17 12 9 10 10 9 9 9 10 8 10 14 17 15 23 19 22 23 28 28 30 28 24 24 22 22 25 25 25 23 21 19 17 16 15 13 11 10 8 10 10 8 8 12 17 19 18 25 26 26 29 28 31 37 45 44 46 50 55 55 57 59 58 56 58 56
53 53 53 52 52 50 43 31 39 36 33 29 30 29 29 29 44 33 32 22 19 15 16 11 6 7 8 6 5 8 7 9 12 13 13 17 14 18 19 20 24 26 26 26 27 23 24 23 22 24 24 23 21 18 18 18 15 13 15 11 9 8 8 8 10 9 12 17 17 22 25 26 27 27 29 32 37 44 46 46 51 59 59 56 57 56 57 56
53 53 52 51 50 50 47 46 43 33 31 31 30 29 31 38 41 33 29 20 16 17 12 12 10 9 7 6 6 5 5 6 8 12 16 20 19 18 15 13 14 16 20 22 24 25 23 23 22 21 22 21 20 19 20 20 16 15 16 13 9 8 6 5 8 9 8 9 14 14 23 28 29 30 28 28 32 37 39 41 44 59 57 59 57 54 56 55
53 52 52 51 50 50 50 47 42 36 35 33 32 31 30 38 28 29 29 21 14 12 14 10 11 9 6 6 4 4 3 5 4 17 18 20 17 15 13 13 11 11 15 16 18 22 24 23 23 21 21 20 19 19 19 19 17 18 17 15 11 8 8 8 7 8 9 13 17 19 21 26 28 27 25 29 29 31 37 40 42 47 59 57 58 55 53 55
53 52 52 51 49 46 48 45 43 40 40 35 35 36 32 30 29 26 23 17 15 9 10 9 8 6 5 5 4 6 4 3 5 8 12 11 15 18 16 14 14 14 13 15 16 17 19 27 27 22 20 20 20 18 18 19 19 17 17 17 12 6 12 13 11 12 10 10 16 17 19 21 21 25 24 23 26 30 33 38 41 46 50 55 55 55 53 53
52 51 50 50 47 42 44 37 39 37 37 40 37 33 32 32 27 26 23 11 12 8 9 8 5 7 4 4 1 6 6 3 3 7 6 6 7 16 15 12 12 10 9 8 11 14 16 19 21 21 23 21 20 17 17 17 17 17 17 15 12 13 16 20 18 17 10 8 11 13 20 23 22 25 26 25 23 27 31 32 38 42 53 54 58 54 54 54
50 49 50 50 48 47 42 38 37 37 40 39 36 32 29 26 26 22 16 15 12 9 8 7 5 5 4 4 3 4 4 2 6 9 6 5 10 12 12 11 12 11 8 5 1 7 10 15 20 23 27 21 18 17 17 16 18 19 17 16 11 14 16 16 19 15 14 9 10 6 11 16 21 26 23 24 22 23 28 30 35 39 51 55 56 53 54 55
49 49 49 50 51 47 41 39 40 43 40 35 33 31 28 28 26 23 20 9 7 9 8 9 5 4 5 -4 -2 5 5 -1 5 5 9 8 10 13 13 13 16 15 15 13 10 3 2 8 15 21 19 23 18 16 17 16 17 16 15 15 14 12 14 17 17 17 15 12 7 5 7 8 14 16 21 17 28 28 27 32 35 40 41 58 54 53 50 53
49 49 50 49 46 43 40 44 43 41 36 36 35 29 28 25 22 23 12 9 8 9 8 6 5 4 3 -2 5 7 2 2 4 5 6 6 4 5 5 19 17 15 14 13 12 11 8 4 6 15 20 21 19 17 17 15 14 12 11 10 14 16 11 17 17 16 14 14 9 5 4 11 4 12 7 14 21 27 27 26 37 41 42 50 52 54 55 53
49 50 52 50 47 45 42 41 43 37 34 32 29 26 27 27 20 13 15 9 9 8 7 8 6 3 -0 2 6 6 1 3 8 6 -1 -1 4 15 15 19 19 15 15 12 11 17 13 12 8 11 16 21 20 20 19 16 12 12 12 12 12 14 16 13 17 16 15 13 9 12 8 8 9 17 11 17 21 27 26 26 33 40 51 53 52 53 51 57
49 50 50 48 44 41 41 34 33 33 33 30 28 28 25 23 19 14 14 13 9 7 5 4 4 1 -2 2 10 9 9 8 3 5 1 2 4 15 19 20 19 18 17 16 17 16 17 16 13 13 14 16 17 22 22 19 15 14 15 14 12 14 14 18 19 16 18 18 17 15 10 7 8 6 8 11 17 25 27 26 25 33 54 55 53 52 51 49
47 47 44 41 37 33 34 33 32 35 34 30 29 28 22 16 16 15 19 13 11 10 5 2 5 4 4 2 8 9 8 6 2 2 4 1 1 8 18 19 20 19 19 17 14 13 14 14 16 17 16 19 17 17 21 21 20 17 13 17 17 16 15 19 15 21 18 17 19 12 10 11 8 10 11 11 11 15 24 27 26 31 39 46 48 53 53 51
48 47 46 38 34 33 32 35 33 34 31 29 29 34 24 17 17 14 14 13 10 9 4 6 9 9 8 7 5 8 6 -1 10 10 7 2 6 18 18 18 20 19 19 18 15 14 13 11 12 14 15 17 21 16 18 23 22 19 18 19 18 18 18 21 21 17 17 16 19 20 14 12 12 17 10 12 12 13 21 27 28 26 32 54 54 51 52 51
49 47 41 35 34 31 31 37 33 35 32 29 28 29 21 17 17 16 14 12 11 8 6 11 11 13 11 7 7 9 8 6 8 7 7 5 6 20 18 18 17 18 18 17 15 15 16 14 15 15 16 18 19 19 16 18 21 21 21 19 20 19 20 20 20 23 23 19 18 18 15 15 14 16 14 13 18 20 18 22 24 29 34 46 49 51 52 52
48 46 33 36 33 34 39 35 31 32 30 29 24 19 20 17 18 16 15 14 14 12 13 12 12 11 11 6 8 7 5 9 8 8 8 8 7 14 16 19 17 17 16 15 14 14 14 18 15 15 15 17 18 20 16 17 19 20 20 19 19 19 19 17 18 18 19 21 21 22 17 21 21 17 18 21 20 22 20 24 32 33 36 36 45 51 52 52
45 40 34 35 33 35 32 30 30 29 29 29 27 22 20 19 18 18 17 14 14 14 12 12 12 12 13 11 8 13 11 10 10 8 6 6 4 14 18 17 17 15 14 13 12 12 14 12 14 15 14 14 16 19 19 17 18 18 17 16 18 18 18 19 18 16 15 18 23 21 20 26 17 17 16 22 23 20 22 24 27 30 32 39 40 42 48 50
45 35 32 34 34 34 33 30 29 26 26 24 22 22 23 29 21 15 17 14 14 13 12 9 14 11 13 13 14 13 12 12 12 9 6 4 10 17 17 18 18 16 12 13 12 18 27 24 23 21 19 19 19 18 21 21 19 18 19 18 15 18 19 21 21 19 16 15 17 21 21 28 29 31 22 23 23 20 24 23 23 23 29 29 36 36 45 51
34 31 33 34 34 33 31 31 30 29 26 23 25 23 20 19 15 17 17 17 13 13 11 14 15 13 12 15 14 13 10 8 8 7 6 10 18 16 18 18 19 17 14 12 14 28 35 22 20 19 19 19 19 19 19 20 21 20 19 20 18 12 17 20 21 21 18 17 16 18 23 23 24 39 34 23 33 20 29 23 27 21 21 26 27 34 41 50
39 35 31 31 32 32 29 29 27 26 24 24 25 21 21 21 21 20 19 15 16 16 14 15 16 16 17 14 15 12 14 12 10 10 11 10 9 15 16 16 18 16 14 18 21 23 21 27 23 20 21 21 16 16 16 18 18 19 20 22 22 21 16 18 22 27 21 17 16 18 18 20 25 34 42 29 20 19 20 19 22 24 27 22 24 31 36 46
44 41 36 28 32 28 26 25 25 26 24 26 22 24 20 19 22 22 18 18 18 17 15 18 19 19 15 16 16 14 14 12 12 14 11 13 16 17 17 17 16 17 15 28 34 21 20 22 26 22 19 17 13 11 17 24 21 22 22 20 21 21 19 19 22 27 24 33 31 23 20 24 28 41 29 27 25 34 37 35 23 21 34 24 46 44 51 53
38 33 28 34 31 26 24 28 24 25 26 26 26 23 21 23 21 21 19 21 20 18 18 17 18 15 16 14 17 18 17 13 15 16 15 15 17 19 17 17 18 18 27 31 29 21 18 18 23 26 25 23 23 28 25 26 24 24 23 23 21 21 20 21 24 25 23 29 26 34 34 32 27 22 26 23 25 26 28 34 39 37 31 38 51 51 49 60
39 30 31 32 35 28 26 24 26 26 29 27 31 26 23 22 21 21 22 23 22 19 17 16 18 17 21 20 21 20 17 16 20 21 20 20 20 21 20 15 16 22 30 28 26 19 19 14 14 21 22 23 23 23 22 22 22 24 23 22 21 21 21 22 22 22 33 28 24 31 41 29 38 46 35 41 45 44 42 43 42 44 45 43 40 56 55 48
34 32 32 35 33 27 27 25 26 25 28 27 30 25 24 22 23 24 25 20 17 13 17 28 23 22 20 21 23 19 22 24 24 23 23 21 23 21 21 22 21 29 26 17 19 19 19 17 15 13 11 12 13 14 14 14 16 19 21 21 19 21 21 22 24 23 27 25 26 37 39 34 43 45 46 46 46 45 42 42 43 44 45 48 53 45 39 40
37 35 32 32 31 28 27 27 28 28 30 31 28 28 24 23 23 21 22 23 20 21 22 22 24 23 22 22 23 23 29 23 25 29 29 27 26 26 21 19 17 20 19 17 18 23 20 14 15 13 12 9 8 8 10 12 15 14 15 18 18 18 19 21 22 22 23 30 34 30 37 32 39 45 48 43 44 43 43 45 44 45 46 49 45 46 44 44
37 39 39 35 33 29 27 27 28 27 26 32 35 29 27 27 25 24 26 23 24 24 27 26 24 24 23 23 26 24 25 25 26 26 27 26 23 24 22 21 17 18 18 20 20 25 21 20 22 16 16 12 11 9 9 11 13 14 15 16 15 17 19 20 21 23 27 26 24 25 32 33 44 45 40 45 45 43 46 46 45 49 46 45 42 40 42 44
39 41 45 41 30 32 34 29 28 29 28 29 30 31 28 27 28 31 28 26 25 25 27 27 26 26 25 25 26 25 25 27 29 30 29 28 25 25 23 24 23 22 24 24 24 27 24 21 19 20 19 17 15 12 10 10 9 10 13 12 14 16 18 19 22 23 26 28 27 26 31 30 34 41 44 42 41 46 49 49 48 46 46 50 48 49 54 57
42 42 45 41 36 37 34 27 29 29 28 28 32 30 32 29 28 29 29 31 29 29 28 26 27 26 27 27 28 29 30 30 30 30 31 28 26 24 22 21 20 22 24 20 23 23 26 25 19 19 17 16 14 13 10 9 9 10 11 11 13 16 19 19 22 24 26 27 27 28 29 31 50 50 46 47 47 49 49 48 46 52 55 54 53 55 55 55